Location: Guignecourt
(49.4818°N, 2.1281°E)
Time: 12:42:21
(UTC+00:00)

Daily predictions for brighter satellites

Satellite Brightness Start Highest point End
(mag) Time Altitude Azimuth Time Altitude Azimuth Time Altitude Azimuth
SAR-Lupe-2 3.5 18:41:23 10° SSE 18:44:57 78° ENE 18:48:32 10° NNW
Cosmos 1315 Rocket 4.4 18:43:39 10° NNE 18:46:22 17° ENE 18:49:04 10° ESE
Meteor PRIRODA 3.4 18:46:28 10° SSE 18:49:42 61° ENE 18:52:58 10° N
ATLAS 2AS CENTAUR R/B 4.2 18:43:18 10° W 18:49:49 35° NNW 18:56:08 10° NE
Cosmos 1125 Rocket 4.2 18:45:25 10° N 18:50:14 37° ENE 18:55:03 10° SE
Cosmos 1842 3.4 18:48:19 10° N 18:51:49 44° ENE 18:55:17 10° SSE
USA 59 Rocket 0.1 18:49:34 10° NW 18:53:20 79° SW 18:58:31 10° SE
Cosmos 1536 3.7 18:51:11 10° SE 18:54:21 25° E 18:57:32 10° NNE
Okean 3 Rocket 4.4 18:50:52 10° SSE 18:54:47 31° E 18:58:42 10° NNE
Cosmos 2061 Rocket 4.3 18:49:08 10° SSW 18:55:33 79° W 19:02:02 10° N
Cosmos 1707 3.0 18:52:14 10° N 18:55:38 40° ENE 18:58:59 10° SSE
COSMOS 2428 2.7 18:50:07 10° SSW 18:55:45 66° ESE 19:01:27 10° NNE
Cosmos 1515 Rocket 4.2 18:51:49 10° N 18:55:49 35° ENE 18:59:50 10° SE
Cosmos 1818 3.8 18:55:25 10° SW 19:00:53 76° NW 19:06:25 10° NE
Okean O Rocket 2.7 18:57:42 10° ESE 19:01:27 28° ENE 19:05:13 10° N
Cosmos 2278 Rocket 2.2 19:00:37 10° NNW 19:06:19 75° ENE 19:11:59 10° SE
USA 306 2.2 19:04:33 10° WSW 19:07:37 88° NNW 19:11:16 10° ENE
CZ-4B DEB 4.2 19:03:43 10° SSE 19:09:15 89° ENE 19:14:47 10° NNW
CZ-4 R/B 1.2 19:06:26 10° SSE 19:10:15 78° ENE 19:14:10 10° N
NOSS 2-1 (C) 4.2 19:09:57 10° NW 19:13:39 53° SW 19:18:41 10° SSE
CZ-4B R/B 3.3 19:08:25 10° SSE 19:13:45 60° ENE 19:19:02 10° N
Cosmos 1766 Rocket 3.5 19:10:00 10° S 19:14:21 87° E 19:18:47 10° N
Meteor 2-17 Rocket 4.4 19:09:42 10° N 19:15:47 75° ENE 19:21:51 10° SSE
Resurs 01 Rocket 1.6 19:11:26 10° SSE 19:15:48 62° ENE 19:20:11 10° N
Helios 1A 2.8 19:12:26 10° NNE 19:16:32 77° ESE 19:20:34 10° S
USA 290 2.4 19:13:29 10° NNW 19:16:47 74° WSW 19:20:03 10° SSE
ADEOS 4.1 19:13:17 10° S 19:18:27 64° WSW 19:23:40 10° NNW
GEOS 3 Rocket 3.7 19:13:48 10° SE 19:19:03 79° SW 19:24:15 10° NW
USA 186 1.7 19:17:53 10° SSE 19:21:05 71° ENE 19:24:19 10° N
CZ-4B R/B 4.0 19:16:40 10° S 19:21:18 57° WSW 19:26:05 10° NNW
Cosmos 1814 Rocket 4.0 19:16:48 10° SSW 19:22:06 88° WNW 19:27:23 10° NNE
PAYLOAD B 4.3 19:16:46 10° SSE 19:22:22 89° ENE 19:28:02 10° NNW
Cosmos 2360 Rocket 4.3 19:17:38 10° WSW 19:22:25 28° NW 19:27:15 10° NNE
KORONAS-FOTON 3.9 19:19:01 10° NNW 19:22:43 73° W 19:26:23 10° S
Cosmos 1743 4.3 19:19:40 10° SW 19:22:58 35° WNW 19:26:17 10° N
MOS 1-B 4.5 19:17:59 10° SE 19:23:39 59° ENE 19:29:20 10° N
SPOT 5 3.8 19:22:14 18° ESE 19:24:28 27° ENE 19:28:11 10° N
Okean-O 3.6 19:23:04 19° ESE 19:25:13 28° ENE 19:29:00 10° N
USA 267 4.0 19:21:35 10° ENE 19:27:45 47° N 19:33:56 10° WNW
Cosmos 1408 Rocket 4.0 19:24:25 10° SSE 19:28:29 39° E 19:32:36 10° NNE
ISS -3.3 19:26:16 10° SW 19:29:26 40° SSE 19:30:43 27° E
SPOT 1/Viking Rocket 4.3 19:24:35 10° S 19:29:39 54° W 19:34:43 10° NNW
NOSS 3-3 (A) 4.3 19:25:14 10° S 19:29:58 33° ESE 19:35:21 10° NE
CZ-4B R/B 3.2 19:26:30 10° S 19:30:20 66° WSW 19:34:24 10° NNW
Kosmos-1783 4.1 19:30:13 10° WSW 19:32:05 26° NW 19:33:12 14° NNE
SL-08 R/B 3.9 19:28:11 10° N 19:33:04 63° WNW 19:37:55 10° SSW
Cosmos 2237 Rocket 2.2 19:29:19 10° S 19:34:47 56° ESE 19:40:17 10° NE
Aureole 3 Rocket 4.1 19:31:17 10° SSE 19:37:31 41° E 19:42:08 10° NNE
CSL-04 Rocket 3.6 19:32:11 10° SSE 19:37:32 82° ENE 19:42:52 10° NNW
Cosmos 2219 Rocket 3.9 19:34:31 10° WSW 19:39:41 35° NW 19:44:51 10° NNE
Cosmos 1356 Rocket 3.9 19:38:34 10° NNW 19:42:43 61° W 19:46:49 10° S
Meteor 1-14 Rocket 4.4 19:38:02 10° SSW 19:43:33 73° WNW 19:49:07 10° N
Lacrosse 4 Rocket 4.2 19:41:47 10° WNW 19:44:23 16° WSW 19:46:58 10° SW
Meteor 1-4 Rocket 4.2 19:43:29 10° NW 19:45:41 23° W 19:47:51 10° SSW
Meteor 1-11 Rocket 3.6 19:40:59 10° S 19:46:33 66° E 19:52:03 10° NNE
MOS 1 Rocket 4.2 19:45:38 26° ESE 19:47:43 37° ENE 19:52:34 10° N
CARTOSAT-1 4.0 19:46:40 10° S 19:50:51 60° W 19:55:04 10° NNW
ATLAS CENTAUR R/B 1.0 19:48:15 10° SSW 19:51:43 54° SE 19:54:53 13° NE
Cosmos 158 Rocket 3.8 19:46:57 10° S 19:51:44 59° ESE 19:56:31 10° NNE
NOSS 3-4 (A) 4.3 19:46:37 10° NW 19:52:54 46° NE 19:57:11 23° E
NOSS 3-4 (C) 4.3 19:46:44 10° NW 19:53:01 46° NE 19:57:18 23° E
Cosmos 1805 Rocket 3.7 19:52:47 29° SSE 19:54:35 47° E 19:58:46 10° NNE
Cosmos 1428 Rocket 4.4 19:51:47 10° N 19:57:54 72° E 20:02:18 20° SSE
Cosmos 1733 3.2 19:55:28 10° SSW 19:58:53 67° W 20:02:19 10° N
In-Cosmos 22 4.4 19:54:54 10° NNW 20:00:36 72° W 20:06:01 11° S
USA 276 3.3 19:58:20 10° W 20:00:38 26° SW 20:00:38 26° SW
Cosmos 2369 Rocket 3.1 19:58:01 10° NNW 20:03:14 34° NE 20:05:12 27° E
Cosmos 1980 3.7 19:58:37 10° SSW 20:04:19 87° WNW 20:10:03 10° NNE
Meteor 1-21 4.4 20:02:30 10° N 20:08:09 56° ENE 20:10:23 35° SE
Sich 1 2.8 20:07:33 28° S 20:09:44 72° E 20:14:03 10° NNE
Cosmos 1943 Rocket 2.7 20:04:57 10° NW 20:10:21 56° WSW 20:14:05 20° S
Cosmos 1707 Rocket 4.3 20:06:58 10° N 20:11:04 35° ENE 20:11:05 35° ENE
DELTA 2 DEB (DPAF) 4.2 20:07:56 10° NNE 20:11:47 47° E 20:11:47 47° E
NOSS 0 Rocket 4.4 20:06:44 10° SW 20:12:56 64° NW 20:19:10 10° NNE
Cosmos 2298 Rocket 3.9 20:08:55 10° NNW 20:14:15 88° ENE 20:16:27 37° SSE
Terra 2.3 20:13:52 38° E 20:14:25 40° ENE 20:18:50 10° N
ACS3 Solar Sail 2.0 20:09:35 15° S 20:15:05 79° WSW 20:21:32 10° NNW
ERS-1 Rocket 3.2 20:14:04 41° ESE 20:15:11 49° ENE 20:20:01 10° N
Nadezhda 4 Rocket 4.3 20:09:01 10° NNW 20:15:13 66° W 20:21:26 10° S
Cosmos 2195 Rocket 4.4 20:09:16 10° N 20:15:25 85° E 20:19:12 25° S
Cosmos 2150 Rocket 3.9 20:10:45 10° NNW 20:15:57 90° NE 20:17:56 39° SSE
USA 32 3.9 20:11:21 10° N 20:16:38 87° E 20:19:24 29° S
Cosmos 1570 Rocket 4.1 20:11:43 10° SSW 20:17:00 78° WNW 20:22:18 10° NNE
Cosmos 1975 3.4 20:18:59 39° NE 20:18:59 39° NE 20:21:48 10° NNE
OPS 6432 4.5 20:18:28 10° NW 20:21:15 65° NW 20:21:15 65° NW
Cosmos 1805 3.0 20:21:37 68° SSW 20:22:02 85° W 20:25:43 10° N
Cosmos 1315 Rocket 3.6 20:18:52 10° NNW 20:22:44 49° W 20:24:27 28° SSW
Cosmos 2026 Rocket 3.9 20:16:29 10° N 20:22:46 82° E 20:25:51 32° SSE
Cosmos 1092 Rocket 3.9 20:16:53 10° N 20:23:16 81° E 20:26:28 32° SSE
Ariane Rocket 3.6 20:24:21 37° ENE 20:24:46 37° ENE 20:29:25 10° N
Meteor 2-12 Rocket 4.4 20:20:23 10° N 20:26:34 73° E 20:28:55 40° SSE
Cosmos 836 Rocket 4.4 20:22:13 10° SSW 20:27:30 87° ESE 20:32:51 10° NNE
IRS-1A Rocket 4.2 20:26:27 43° SE 20:28:24 72° ENE 20:34:04 10° NNW
Okean 3 4.1 20:29:29 10° N 20:32:45 40° NE 20:32:45 40° NE
SL-16 R/B 2.3 20:35:16 52° ESE 20:35:16 52° ESE 20:40:41 10° NE
Okean O Rocket 2.9 20:35:02 20° SSW 20:37:34 38° W 20:41:44 10° NNW
Cosmos 1634 Rocket 3.9 20:36:32 35° S 20:39:22 74° E 20:45:42 10° NNE
Cosmos 1656 Rocket 3.6 20:34:37 10° NNW 20:40:18 75° ENE 20:41:19 59° ESE
SL-14 R/B 3.7 20:36:39 10° NNW 20:40:23 54° W 20:40:36 53° WSW
USA 306 3.5 20:37:13 10° WNW 20:40:30 41° N 20:40:35 41° N
USA 59 Rocket 2.9 20:40:47 10° W 20:42:39 12° WSW 20:44:42 10° SW
CZ-4 R/B 4.4 20:44:32 10° W 20:45:19 10° W 20:46:07 10° WNW
IRS-1C Rocket 4.0 20:45:02 61° SSE 20:46:00 88° ENE 20:51:19 10° NNW
Cosmos 773 Rocket 3.9 20:45:39 41° SSW 20:47:32 84° ESE 20:52:52 10° NNE
Cosmos 2278 Rocket 4.4 20:45:43 10° NW 20:49:46 20° W 20:53:48 10° SW
Okean 1-7 4.3 20:45:54 10° N 20:48:39 31° NE 20:48:39 31° NE
Cosmos 2263 4.4 20:45:49 10° NNW 20:51:26 53° NE 20:51:55 52° ENE
Resurs 01 Rocket 4.3 20:49:47 10° SW 20:52:38 17° W 20:55:30 10° NW
Cosmos 2228 Rocket 3.1 20:50:55 10° N 20:55:20 81° NW 20:55:20 81° NW
Cosmos 1743 Rocket 4.5 20:56:20 32° SW 20:57:51 46° WNW 21:02:04 10° N
SPOT 3 Rocket 3.5 21:00:55 69° ENE 21:00:55 69° ENE 21:05:54 10° N
Okean-O 3.8 21:00:31 32° SW 21:01:29 36° W 21:05:34 10° NNW
SPOT 5 3.7 21:01:23 36° SW 21:02:20 41° W 21:06:35 10° NNW
Cosmos 2142 Rocket 4.4 21:02:35 63° E 21:02:39 63° E 21:08:44 10° NNE
NOSS 3-3 (C) 4.0 21:00:38 10° SW 21:06:07 72° NW 21:12:42 10° NE
ISS -1.1 21:02:48 10° W 21:03:42 17° W 21:03:42 17° W
USA 267 3.5 21:08:22 45° ENE 21:10:15 63° NNE 21:16:42 10° WNW
Cosmos 724 4.3 21:15:30 63° NE 21:15:30 63° NE 21:20:22 10° NE
Cosmos 2180 Rocket 4.4 21:17:01 71° E 21:17:01 71° E 21:23:20 10° NNE
Cosmos 2237 Rocket 3.9 21:14:09 10° WSW 21:19:09 32° NW 21:24:09 10° NNE
NOSS 3-3 (A) 4.3 21:14:56 10° WSW 21:20:24 59° NW 21:26:56 10° NE
Cosmos 2279 Rocket 3.9 21:19:59 66° SSW 21:20:55 84° W 21:27:11 10° N
Cosmos 1607 4.0 21:18:00 10° SW 21:24:28 82° NW 21:30:57 10° NE
Cosmos 2297 4.0 21:23:31 10° NW 21:28:59 57° WSW 21:28:59 57° WSW
ATLAS CENTAUR R/B 3.4 21:26:23 10° W 21:29:23 23° NW 21:29:51 23° NNW
Spot 2 Rocket 4.0 21:31:06 54° W 21:31:06 54° W 21:35:44 10° NNW
NOSS 3-4 (A) 4.0 21:37:23 10° NW 21:44:08 62° SW 21:44:37 60° SW
NOSS 3-4 (C) 4.0 21:37:30 10° NW 21:44:15 62° SW 21:44:43 61° SW
Cosmos 2369 Rocket 2.8 21:41:57 10° NW 21:46:58 49° W 21:46:58 49° W
Terra 3.5 21:52:34 28° W 21:52:34 28° W 21:56:11 10° NW
ACS3 Solar Sail 4.3 21:56:33 10° WSW 22:00:09 15° W 22:03:45 10° NW
Ariane Rocket 4.4 22:04:29 33° WNW 22:04:29 33° WNW 22:08:20 10° NNW
Cosmos 2266 Rocket 4.4 22:03:54 10° NNW 22:09:40 57° WNW 22:09:40 57° WNW
SL-16 R/B 3.7 22:17:00 23° W 22:19:33 34° NW 22:24:41 10° NNE
ATLAS 2AS CENTAUR R/B 3.7 22:29:13 10° NW 22:35:37 38° NNE 22:36:31 36° NE
Cosmos 1943 4.5 22:41:44 36° N 22:41:44 36° N 22:45:10 10° NNE
USA 267 4.2 22:55:43 39° WNW 22:55:43 39° WNW 22:59:47 10° WNW
Cosmos 1697 Rocket 4.3 22:48:38 10° NNW 22:52:28 29° NNE 22:52:28 29° NNE
Cosmos 2344 3.9 23:19:21 10° NW 23:27:14 83° W 23:27:14 83° W
Cosmos 1980 Rocket 3.8 23:48:51 10° NNW 23:52:13 31° N 23:52:13 31° N
